Location: Besigheim
(48.9980°N, 9.1427°E)
Time: 00:00:43
(UTC+00:00)

SL-24 R/B - RUBIN 2 - Visible Passes

Search period start: 16 February 2026 00:00
Search period end: 26 February 2026 00:00
Orbit: 602 x 985 km, 64.6° (Epoch: 14 February)

Date Brightness Start Highest point End Pass type
(mag) Time Alt. Az. Time Alt. Az. Time Alt. Az.
16 Feb 6.8 02:22:18 10° NE 02:22:18 10° NE 02:22:18 10° NE visible
16 Feb 5.5 04:03:03 19° N 04:03:03 19° N 04:05:24 10° NNE visible
16 Feb 5.9 05:46:20 10° NNW 05:47:30 11° N 05:48:41 10° NNE visible
17 Feb 5.8 03:33:48 18° N 03:33:48 18° N 03:35:25 10° NNE visible
17 Feb 5.9 05:15:45 10° NNW 05:17:08 11° N 05:18:30 10° NNE visible
18 Feb 6.2 03:04:31 15° NNE 03:04:31 15° NNE 03:05:27 10° NNE visible
18 Feb 5.9 04:45:17 10° NNW 04:46:47 12° N 04:48:26 10° NNE visible
19 Feb 6.6 02:35:13 11° NNE 02:35:13 11° NNE 02:35:29 10° NNE visible
19 Feb 5.9 04:15:59 12° NNW 04:16:26 13° NNW 04:18:24 10° NNE visible
20 Feb 5.9 03:46:41 14° N 03:46:41 14° N 03:48:25 10° NNE visible
20 Feb 6.0 05:30:14 10° NNW 05:31:45 11° N 05:33:15 10° NNE visible
21 Feb 6.1 03:17:21 13° N 03:17:21 13° N 03:18:27 10° NNE visible
21 Feb 6.0 05:00:08 10° NNW 05:01:23 11° N 05:02:38 10° NNE visible
22 Feb 6.4 02:48:02 12° NNE 02:48:02 12° NNE 02:48:29 10° NNE visible
22 Feb 6.1 04:29:53 10° NNW 04:31:01 11° N 04:32:07 10° NNE visible
23 Feb 6.1 03:59:29 10° NNW 04:00:38 11° N 04:01:47 10° NNE visible
23 Feb 5.9 05:43:22 10° NNW 05:46:12 17° NNE 05:49:02 10° ENE visible
24 Feb 6.1 03:30:06 11° N 03:30:16 11° N 03:31:37 10° N visible
24 Feb 6.0 05:13:24 10° NNW 05:15:54 15° NNE 05:18:23 10° NE visible
25 Feb 6.3 03:00:46 11° N 03:00:46 11° N 03:01:33 10° NNE visible
25 Feb 6.0 04:43:25 10° NNW 04:45:34 13° NNE 04:47:43 10° NE visible
